Location: Fort Wayne
(41.1310°N, 85.1290°W)
Time: 07:55:39
(UTC-04:00)

COSMOS 2428 - Visible Passes

Search period start: 28 March 2017 00:00
Search period end: 07 April 2017 00:00
Orbit: 847 x 855 km, 70.9° (Epoch: 26 March)

Date Brightness Start Highest point End Pass type
(mag) Time Alt. Az. Time Alt. Az. Time Alt. Az.
28 Mar 4.9 03:47:09 17° E 03:47:09 17° E 03:50:18 10° ENE visible
28 Mar 2.7 05:29:10 51° WSW 05:30:27 67° WNW 05:36:08 10° NNE visible
29 Mar 5.0 03:35:39 16° E 03:35:39 16° E 03:38:14 10° ENE visible
29 Mar 2.6 05:17:41 60° WSW 05:18:23 67° WNW 05:24:04 10° NNE visible
29 Mar 4.7 07:01:47 10° WNW 07:03:48 12° NW 07:05:49 10° NNW visible
30 Mar 5.1 03:24:06 15° E 03:24:06 15° E 03:26:11 10° ENE visible
30 Mar 2.6 05:06:08 66° WNW 05:06:19 67° WNW 05:12:00 10° NNE visible
30 Mar 4.7 06:49:44 10° WNW 06:51:44 12° NW 06:53:45 10° NNW visible
31 Mar 5.2 03:12:29 15° ENE 03:12:29 15° ENE 03:14:07 10° ENE visible
31 Mar 2.7 04:54:31 65° NW 04:54:31 65° NW 04:59:55 10° NNE visible
31 Mar 4.7 06:37:41 10° WNW 06:39:40 12° NW 06:41:39 10° NNW visible
01 Apr 5.2 03:00:51 14° ENE 03:00:51 14° ENE 03:02:03 10° ENE visible
01 Apr 2.9 04:42:52 60° NNW 04:42:52 60° NNW 04:47:51 10° NNE visible
01 Apr 4.7 06:25:38 10° WNW 06:27:35 12° NW 06:29:34 10° NNW visible
02 Apr 5.3 02:49:09 13° ENE 02:49:09 13° ENE 02:50:00 10° ENE visible
02 Apr 3.1 04:31:10 54° NNW 04:31:10 54° NNW 04:35:47 10° NNE visible
02 Apr 4.7 06:13:35 10° WNW 06:15:32 12° NW 06:17:29 10° NNW visible
03 Apr 5.4 02:37:25 12° ENE 02:37:25 12° ENE 02:37:56 10° ENE visible
03 Apr 3.4 04:19:26 49° N 04:19:26 49° N 04:23:43 10° NNE visible
03 Apr 4.7 06:01:32 10° WNW 06:03:28 12° NW 06:05:24 10° NNW visible
04 Apr 5.4 02:25:39 11° ENE 02:25:39 11° ENE 02:25:52 10° ENE visible
04 Apr 3.6 04:07:40 44° N 04:07:40 44° N 04:11:38 10° NNE visible
04 Apr 4.8 05:49:40 10° WNW 05:51:24 12° NW 05:53:19 10° NNW visible
05 Apr 3.7 03:55:52 40° N 03:55:52 40° N 03:59:34 10° NNE visible
05 Apr 4.8 05:37:52 11° WNW 05:39:20 12° NW 05:41:14 10° NNW visible
06 Apr 3.9 03:44:02 37° N 03:44:02 37° N 03:47:30 10° NNE visible
06 Apr 4.8 05:26:02 11° NW 05:27:16 12° NW 05:29:09 10° NNW visible
